Date,TemperatureHighF,TemperatureAvgF,TemperatureLowF,DewpointHighF,DewpointAvgF,DewpointLowF,HumidityHigh,HumidityAvg,HumidityLow,PressureMaxIn,PressureMinIn,WindSpeedMaxMPH,WindSpeedAvgMPH,GustSpeedMaxMPH,PrecipitationSumIn
2013-1-1,44,36,27,28,24,18,71,63,47,30.03,29.93,4,0,7,0.00
2013-1-2,40,33,25,27,16,6,71,51,30,30.24,30.00,7,1,13,0.00
2013-1-3,47,29,17,18,14,8,76,56,23,30.26,30.14,3,0,6,0.00
2013-1-4,46,36,26,17,14,9,64,42,24,30.22,30.13,7,2,12,0.00
2013-1-5,51,40,29,19,12,0,54,35,12,30.39,30.17,4,1,8,0.00
2013-1-6,50,39,27,26,23,18,77,53,31,30.19,30.04,5,0,10,0.00
2013-1-7,50,37,24,27,21,15,80,53,25,30.48,30.17,7,2,13,0.00
2013-1-8,62,37,22,32,21,5,85,61,10,30.42,30.34,5,0,10,0.00
2013-1-9,54,39,24,39,28,16,84,68,23,30.43,30.24,8,0,17,0.00
2013-1-10,63,48,39,25,22,11,57,37,13,30.62,30.43,7,1,14,0.00
2013-1-11,54,44,38,40,30,22,90,61,34,30.48,30.10,8,1,14,0.06
2013-1-12,64,46,40,47,42,37,94,86,53,30.19,30.10,3,0,6,0.01
2013-1-13,68,52,39,54,46,38,96,82,54,30.11,29.95,4,0,8,0.00
2013-1-14,65,52,38,57,42,30,91,68,49,30.35,29.95,8,2,17,0.26
2013-1-15,40,37,34,36,34,31,93,87,74,30.37,30.16,4,0,7,0.63
2013-1-16,40,37,34,38,35,32,95,93,88,30.17,29.83,6,0,10,0.38
2013-1-17,44,39,33,38,30,23,96,74,46,30.15,30.00,7,1,13,0.00
2013-1-18,45,35,29,29,12,-8,81,40,11,30.50,30.11,10,2,19,0.00
2013-1-19,65,45,26,24,15,1,66,35,10,30.39,29.95,5,1,17,0.00
2013-1-20,59,45,30,25,7,-13,55,25,10,30.09,29.85,11,3,26,0.00
2013-1-21,51,33,25,15,8,-8,56,37,11,30.11,29.80,11,2,18,0.00
2013-1-22,28,19,14,4,-11,-24,38,26,10,30.29,29.97,11,3,21,0.00
2013-1-23,27,20,12,10,-8,-20,68,30,13,30.34,30.12,8,1,16,0.00
2013-1-24,31,21,10,16,3,-12,82,51,16,30.54,30.07,9,2,17,0.02
2013-1-25,24,18,10,15,8,-1,77,64,35,30.53,30.06,6,1,11,0.00
2013-1-26,37,27,20,24,18,14,80,69,52,30.45,30.07,5,0,8,0.04
2013-1-27,46,32,20,20,13,7,64,47,23,30.59,30.44,6,1,10,0.00
2013-1-28,52,38,31,40,31,19,89,76,57,30.45,30.06,4,1,9,0.17
2013-1-29,77,59,41,54,46,38,93,65,34,30.13,29.95,6,1,11,0.01
2013-1-30,73,59,50,57,52,43,98,80,53,29.95,29.25,12,2,19,1.37
2013-1-31,56,40,28,56,21,7,99,49,28,29.91,29.20,14,5,26,0.18
2013-2-1,30,24,13,21,4,-10,81,44,19,30.39,29.81,13,3,22,0.00
2013-2-2,32,21,10,20,9,0,75,59,32,30.39,30.01,8,1,12,0.00
2013-2-3,37,30,24,27,20,5,81,68,35,30.01,29.82,12,1,24,0.00
2013-2-4,45,32,21,17,9,3,58,39,18,30.10,29.88,9,2,19,0.00
2013-2-5,42,34,28,29,25,16,84,69,58,29.95,29.85,4,0,7,0.00
2013-2-6,51,37,24,31,23,17,88,61,27,30.35,29.94,8,2,14,0.00
2013-2-7,40,34,23,24,19,14,82,56,40,30.42,30.19,8,2,14,0.00
2013-2-8,42,36,31,34,27,16,88,71,48,30.19,29.81,13,2,21,0.12
2013-2-9,46,34,20,17,10,-4,65,39,12,30.41,30.02,12,4,22,0.00
2013-2-10,50,33,14,22,9,-6,79,44,10,30.47,30.19,9,2,17,0.00
2013-2-11,70,51,36,45,30,0,87,52,10,30.19,29.72,11,2,18,0.06
2013-2-12,67,49,34,22,13,1,58,27,10,30.00,29.85,11,2,21,0.00
2013-2-13,46,34,26,30,25,19,87,69,40,29.96,29.68,5,0,8,0.06
2013-2-14,57,39,29,31,25,14,89,60,19,30.02,29.80,4,0,8,0.17
2013-2-15,61,39,26,36,27,18,89,65,20,30.05,29.92,8,1,14,0.21
2013-2-16,38,34,31,31,25,15,90,73,41,30.02,29.89,5,1,10,0.01
2013-2-17,32,26,22,10,2,-7,57,37,21,30.24,29.89,11,4,20,0.01
2013-2-18,52,36,16,6,-2,-12,57,24,10,30.38,30.20,7,2,11,0.00
2013-2-19,61,45,34,39,20,-5,76,42,10,30.20,29.69,11,3,22,0.04
2013-2-20,42,33,24,14,6,-3,44,33,16,30.19,29.87,11,4,18,0.00
2013-2-21,42,29,22,13,7,2,58,39,20,30.34,30.15,10,3,18,0.00
2013-2-22,33,30,25,25,19,12,72,62,46,30.39,30.17,7,2,12,0.00
2013-2-23,58,40,32,36,30,24,88,68,40,30.18,29.85,4,1,6,0.00
2013-2-24,55,41,31,39,22,3,90,54,13,30.16,29.83,11,3,22,0.00
2013-2-25,53,34,21,19,13,1,73,46,13,30.24,30.15,4,1,10,0.00
2013-2-26,39,33,24,34,26,15,88,75,48,30.22,29.85,5,1,8,0.20
2013-2-27,47,39,37,34,33,26,88,81,45,29.85,29.67,2,1,8,0.56
2013-2-28,46,41,35,33,23,17,74,49,32,29.77,29.66,8,2,16,0.00
2013-3-1,43,38,32,24,21,17,59,51,40,29.93,29.76,8,3,13,0.00
2013-3-2,36,32,27,19,16,13,61,51,40,29.93,29.85,7,2,13,0.00
2013-3-3,42,33,28,17,12,6,57,43,23,29.97,29.85,11,3,18,0.00
2013-3-4,48,35,25,11,6,-7,48,32,10,30.07,29.97,9,3,18,0.00
2013-3-5,58,42,31,28,10,-4,81,32,10,30.08,29.80,10,2,19,0.00
2013-3-6,40,36,32,32,29,24,92,79,54,30.00,29.63,12,2,21,0.56
2013-3-7,50,41,36,25,22,17,63,47,30,29.84,29.67,8,3,20,0.00
2013-3-8,48,39,30,26,22,19,68,51,34,29.97,29.81,11,4,22,0.00
2013-3-9,67,40,22,29,17,4,83,50,10,30.03,29.89,4,0,8,0.00
2013-3-10,68,46,25,29,15,3,82,40,10,29.94,29.81,9,1,15,0.00
2013-3-11,62,52,43,45,29,7,69,45,16,30.03,29.65,11,2,16,0.00
2013-3-12,58,52,40,50,38,22,89,62,30,30.00,29.76,8,3,17,0.51
2013-3-13,50,38,28,27,17,-3,79,45,13,30.11,29.93,12,3,24,0.00
2013-3-14,48,37,30,14,6,-7,50,28,10,30.18,30.08,11,4,23,0.00
2013-3-15,66,45,28,27,14,-2,64,32,10,30.13,29.80,8,1,17,0.00
2013-3-16,61,44,35,41,34,26,80,68,39,29.95,29.63,7,1,13,0.02
2013-3-17,40,37,35,30,25,18,77,63,43,30.27,29.94,6,1,10,0.00
2013-3-18,35,33,31,30,28,25,88,81,68,30.31,29.90,4,0,8,0.24
2013-3-19,62,45,32,39,17,-10,92,49,10,29.95,29.74,14,4,30,0.12
2013-3-20,57,43,32,26,-2,-13,65,18,10,30.01,29.77,12,4,24,0.00
2013-3-21,37,31,24,23,6,-7,61,36,16,29.93,29.81,10,3,19,0.00
2013-3-22,52,36,26,14,4,-5,50,28,10,30.03,29.90,9,3,16,0.00
2013-3-23,60,39,20,22,10,-3,76,39,10,30.06,29.92,8,2,14,0.00
2013-3-24,43,34,27,28,20,12,86,61,29,30.03,29.65,5,0,9,0.00
2013-3-25,49,36,32,32,30,27,88,78,46,29.73,29.54,2,0,4,0.06
2013-3-26,51,40,32,34,25,17,90,60,29,30.06,29.73,9,2,17,0.01
2013-3-27,50,41,32,25,22,12,63,47,23,30.16,30.05,10,3,19,0.00
2013-3-28,50,43,36,24,21,17,60,42,30,30.27,30.12,9,3,16,0.00
2013-3-29,60,45,34,30,20,0,70,42,10,30.28,30.16,6,1,11,0.00
2013-3-30,66,45,29,28,17,1,77,42,10,30.26,30.11,6,1,11,0.00
2013-3-31,52,46,38,42,33,19,86,61,32,30.11,29.77,7,1,14,0.07
2013-4-1,64,46,35,42,29,8,93,58,17,30.02,29.77,11,2,21,0.01
2013-4-2,52,41,31,10,1,-11,36,20,10,30.20,30.02,9,3,17,0.00
2013-4-3,55,38,22,18,4,-10,69,31,10,30.41,30.19,11,2,22,0.00
2013-4-4,53,37,20,29,6,-8,74,37,10,30.42,30.07,8,1,12,0.02
2013-4-5,69,50,34,39,20,3,85,44,10,30.09,29.85,9,2,17,0.04
2013-4-6,64,47,29,19,7,-4,59,23,10,30.34,30.09,8,2,14,0.00
2013-4-7,78,58,40,36,26,16,56,32,10,30.23,29.97,8,2,16,0.00
2013-4-8,86,69,49,43,32,20,68,31,10,30.10,29.93,5,1,13,0.00
2013-4-9,92,74,53,49,40,26,70,35,10,30.11,29.93,6,1,11,0.00
2013-4-10,97,77,57,50,41,28,67,34,10,30.01,29.79,8,1,16,0.00
2013-4-11,91,74,54,53,47,37,79,43,17,29.91,29.72,9,1,16,0.00
2013-4-12,84,64,54,60,52,33,92,67,25,29.82,29.57,11,2,16,0.53
2013-4-13,77,59,43,37,23,5,72,31,10,29.99,29.83,7,2,13,0.00
2013-4-14,52,49,37,34,30,18,77,50,28,30.17,29.99,3,2,8,0.00
2013-4-15,66,58,52,49,41,31,74,53,44,30.29,30.17,8,2,14,0.00
2013-4-16,80,66,55,54,51,47,78,61,36,30.29,30.11,8,2,17,0.00
2013-4-17,79,67,55,63,56,53,93,72,46,30.24,30.14,8,1,15,0.08
2013-4-18,80,68,60,58,54,49,84,63,42,30.23,29.97,9,2,17,0.01
2013-4-19,77,72,66,60,57,52,69,60,52,29.97,29.62,9,3,17,0.00
2013-4-20,75,75,75,59,59,59,57,57,57,29.62,29.62,2,2,7,0.00
2013-4-21,75,75,75,59,59,59,57,57,57,29.62,29.62,2,2,7,0.00
2013-4-22,75,75,75,59,59,59,57,57,57,29.62,29.62,2,2,7,0.00
2013-4-23,75,59,37,59,42,29,78,55,27,30.35,29.62,5,1,9,0.35
2013-4-24,83,60,40,57,44,36,88,60,21,30.12,29.78,10,1,20,0.05
2013-4-25,73,55,41,39,22,8,61,33,10,30.34,30.09,9,2,17,0.00
2013-4-26,72,53,35,37,28,12,81,45,10,30.50,30.33,5,1,10,0.00
2013-4-27,79,59,37,39,31,16,83,43,10,30.43,30.27,7,1,11,0.00
2013-4-28,59,55,47,47,41,33,77,60,38,30.28,30.14,6,1,14,0.05
2013-4-29,67,58,53,55,50,43,84,77,62,30.15,30.03,6,1,14,0.12
2013-4-30,65,58,54,55,52,47,93,81,66,30.32,30.11,4,1,8,0.00
2013-5-1,80,62,51,47,33,14,76,42,10,30.44,30.31,5,1,11,0.00
2013-5-2,77,58,39,45,37,22,86,52,16,30.44,30.33,4,1,10,0.00
2013-5-3,76,57,39,49,37,25,90,54,18,30.40,30.28,5,1,11,0.00
2013-5-4,75,57,39,42,36,24,78,50,16,30.35,30.18,5,1,11,0.00
2013-5-5,72,54,40,39,34,25,79,50,17,30.26,30.14,6,1,11,0.00
2013-5-6,59,53,44,57,47,38,93,82,74,30.19,30.06,4,0,8,0.09
2013-5-7,64,60,55,60,58,54,98,94,85,30.06,29.93,5,1,10,1.26
2013-5-8,77,60,51,59,52,44,99,78,35,30.03,29.94,4,0,8,0.07
2013-5-9,81,63,50,57,51,46,95,69,30,30.05,29.94,5,1,12,0.00
2013-5-10,90,68,51,61,52,36,94,65,15,30.05,29.85,9,1,17,0.38
2013-5-11,79,71,60,65,60,57,97,73,51,29.92,29.79,3,0,7,0.01
2013-5-12,78,63,44,60,32,9,66,34,11,30.07,29.80,8,2,17,0.01
2013-5-13,63,50,38,32,22,2,72,39,10,30.21,30.06,8,2,17,0.00
2013-5-14,72,52,31,36,27,10,87,47,10,30.25,30.03,5,1,11,0.00
2013-5-15,96,75,47,57,44,32,76,40,17,30.03,29.75,4,1,12,0.00
2013-5-16,96,79,65,61,52,45,79,42,18,29.98,29.75,5,1,13,0.06
2013-5-17,89,71,52,60,51,41,90,55,20,30.14,29.98,4,1,8,0.00
2013-5-18,71,64,62,57,55,52,83,72,58,30.24,30.12,8,1,13,0.00
2013-5-19,76,66,59,62,58,56,89,77,57,30.22,30.10,6,1,14,0.00
2013-5-20,88,74,62,67,63,60,96,73,44,30.13,30.00,5,1,11,0.01
2013-5-21,94,77,61,68,64,58,95,68,34,30.03,29.88,5,1,11,0.00
2013-5-22,95,77,65,70,63,50,95,69,23,29.96,29.84,7,1,14,0.30
2013-5-23,84,68,61,67,64,59,98,87,53,29.93,29.79,5,0,14,1.49
2013-5-24,62,56,46,61,42,26,99,63,31,30.25,29.80,9,3,21,0.01
2013-5-25,70,54,41,35,29,22,60,40,18,30.27,30.15,11,2,21,0.00
2013-5-26,78,61,47,39,26,10,67,33,10,30.27,30.17,7,1,14,0.00
2013-5-27,70,57,41,50,42,36,87,62,32,30.33,30.21,3,0,5,0.00
2013-5-28,88,68,52,63,56,48,93,68,37,30.22,30.06,5,0,11,0.08
2013-5-29,96,79,64,63,60,48,90,56,23,30.16,30.09,4,1,11,0.00
2013-5-30,99,80,62,65,60,44,90,56,17,30.22,30.12,4,1,9,0.00
2013-5-31,98,79,61,64,58,45,93,55,19,30.19,30.03,4,1,10,0.00
2013-6-1,94,81,64,65,61,57,86,55,29,30.08,29.93,7,1,12,0.00
2013-6-2,88,75,69,68,64,58,94,69,48,29.94,29.87,5,0,11,0.41
2013-6-3,85,73,64,70,62,52,98,72,42,30.03,29.88,7,1,11,0.15
2013-6-4,84,66,52,52,43,28,87,51,15,30.19,30.03,4,1,9,0.00
2013-6-5,84,68,52,55,51,39,90,60,24,30.21,30.06,5,1,11,0.00
2013-6-6,68,65,63,64,56,47,94,75,52,30.08,29.88,5,1,10,0.79
2013-6-7,69,66,64,66,65,63,98,95,91,29.88,29.68,4,0,10,0.53
2013-6-8,89,72,61,65,60,52,96,70,30,30.13,29.79,4,0,8,0.28
2013-6-9,85,71,59,69,62,56,93,74,50,30.23,30.11,4,0,9,0.02
2013-6-10,88,72,68,74,68,65,97,88,58,30.13,29.82,6,0,11,0.73
2013-6-11,86,74,64,67,62,58,97,70,40,29.91,29.84,6,1,14,0.01
2013-6-12,95,78,64,68,62,57,86,62,32,29.93,29.83,6,1,10,0.00
2013-6-13,85,72,67,70,65,54,96,80,54,29.84,29.52,10,1,24,0.81
2013-6-14,84,71,61,55,50,38,78,50,24,30.05,29.70,7,2,15,0.00
2013-6-15,91,72,55,58,51,31,91,56,12,30.14,30.02,4,1,9,0.01
2013-6-16,85,73,60,65,59,56,88,65,42,30.07,29.93,4,0,8,0.00
2013-6-17,94,78,66,67,63,56,88,62,29,30.00,29.91,4,1,8,0.00
2013-6-18,85,71,67,69,65,63,92,83,53,29.96,29.83,3,0,5,0.73
2013-6-19,87,72,63,66,60,53,95,70,33,30.18,29.93,4,0,7,0.00
2013-6-20,84,72,61,66,60,54,95,69,42,30.28,30.18,8,1,12,0.00
2013-6-21,88,75,60,58,54,45,80,51,28,30.32,30.24,5,1,11,0.00
2013-6-22,94,77,60,65,60,54,88,60,33,30.28,30.15,5,1,11,0.00
2013-6-23,99,79,64,69,64,50,94,64,21,30.22,30.10,4,0,6,0.00
2013-6-24,95,79,67,70,64,60,89,63,34,30.18,30.07,5,0,11,0.00
2013-6-25,100,82,66,69,64,55,88,59,28,30.09,29.93,6,1,12,0.00
2013-6-26,94,77,66,73,66,58,93,70,40,29.97,29.87,5,0,10,0.27
2013-6-27,90,75,68,75,69,66,98,82,53,29.87,29.66,4,0,10,0.24
2013-6-28,92,77,68,71,64,57,92,68,36,29.68,29.53,8,1,20,0.37
2013-6-29,94,76,63,67,59,47,92,59,22,29.76,29.57,7,0,14,0.13
2013-6-30,94,77,67,71,68,64,97,75,38,29.87,29.73,5,1,11,0.01
2013-7-1,89,78,71,70,68,65,86,71,49,29.98,29.86,5,1,11,0.02
2013-7-2,86,77,72,72,69,66,89,76,54,30.17,29.98,5,1,11,0.01
2013-7-3,92,78,72,73,70,67,90,76,50,30.25,30.16,4,1,8,0.13
2013-7-4,96,80,69,75,69,66,95,71,44,30.27,30.19,4,1,11,0.11
2013-7-5,96,82,69,72,68,63,96,67,37,30.25,30.14,5,1,11,0.00
2013-7-6,96,83,70,72,68,63,93,63,36,30.23,30.09,5,1,12,0.13
2013-7-7,95,78,70,72,68,63,92,72,42,30.14,30.02,8,1,14,0.04
2013-7-8,94,78,67,70,65,58,96,67,32,30.16,30.07,5,1,9,0.01
2013-7-9,94,77,70,70,67,62,88,72,37,30.15,30.03,2,0,6,0.00
2013-7-10,93,80,73,74,69,65,91,72,44,30.04,29.90,4,0,8,0.00
2013-7-11,89,78,72,70,65,59,89,66,38,29.98,29.89,4,0,8,0.01
2013-7-12,74,69,66,68,65,63,96,88,77,30.11,29.95,3,0,7,0.53
2013-7-13,90,77,67,71,68,64,99,76,46,30.29,30.10,4,0,7,0.01
2013-7-14,94,81,70,74,69,64,99,70,40,30.37,30.29,4,0,8,0.01
2013-7-15,102,82,68,73,68,60,98,68,28,30.35,30.25,4,0,6,0.00
2013-7-16,99,83,71,74,70,64,95,68,36,30.32,30.21,4,0,8,0.07
2013-7-17,100,84,72,74,70,62,94,68,32,30.28,30.14,6,0,10,0.00
2013-7-18,104,86,73,75,72,66,93,68,31,30.18,30.04,4,0,8,0.00
2013-7-19,102,82,73,77,72,67,95,74,33,30.06,29.91,8,0,15,0.13
2013-7-20,99,83,71,73,68,61,90,64,30,29.95,29.83,4,1,13,0.00
2013-7-21,94,77,68,73,68,60,93,75,36,30.00,29.92,4,0,8,0.17
2013-7-22,93,77,69,77,70,66,99,83,42,29.98,29.77,5,0,11,1.09
2013-7-23,95,79,70,79,68,60,99,74,32,29.81,29.70,5,1,11,0.01
2013-7-24,88,76,67,67,61,53,88,62,34,29.97,29.74,6,1,11,0.00
2013-7-25,85,70,59,58,51,41,83,56,22,30.10,29.97,6,1,11,0.00
2013-7-26,90,71,54,61,54,44,93,62,23,30.15,30.04,4,0,8,0.00
2013-7-27,84,73,62,69,64,59,93,76,56,30.07,29.93,4,0,8,0.50
2013-7-28,90,76,66,67,64,57,91,70,35,30.04,29.90,4,0,9,0.01
2013-7-29,81,72,56,63,53,46,97,58,32,30.15,30.03,4,1,11,0.01
2013-7-30,88,74,55,61,55,48,94,58,30,30.28,30.14,3,0,7,0.01
2013-7-31,88,70,61,67,63,58,94,80,47,30.19,30.04,5,0,15,0.20
2013-8-1,89,74,67,71,66,60,98,79,40,30.04,29.86,4,0,8,0.09
2013-8-2,92,76,62,72,60,45,99,65,22,30.01,29.91,4,1,10,0.01
2013-8-3,77,69,64,67,63,60,95,82,65,30.03,29.98,2,0,4,0.15
2013-8-4,85,71,60,66,56,42,99,67,23,30.10,29.99,7,1,16,0.08
2013-8-5,87,68,54,59,53,42,93,63,24,30.17,30.03,4,0,7,0.00
2013-8-6,85,72,64,66,62,58,91,71,43,30.09,30.02,4,0,10,0.04
2013-8-7,89,76,66,71,68,64,95,78,47,30.09,30.00,4,1,11,0.05
2013-8-8,87,77,70,75,71,69,99,84,59,30.05,29.99,4,0,8,0.04
2013-8-9,93,81,73,73,70,66,95,73,44,30.02,29.92,6,1,10,0.00
2013-8-10,91,77,68,72,65,53,96,70,30,30.12,30.00,4,0,8,0.00
2013-8-11,90,77,68,70,66,60,93,71,40,30.14,30.03,4,0,8,0.00
2013-8-12,96,79,68,73,65,57,98,67,29,30.06,29.94,6,1,10,0.00
2013-8-13,92,76,68,70,66,60,94,76,35,29.94,29.78,5,1,11,0.39
2013-8-14,79,66,55,59,48,41,81,53,28,30.16,29.89,7,1,14,0.00
2013-8-15,85,65,49,58,46,32,94,61,16,30.24,30.13,4,0,8,0.00
2013-8-16,87,66,50,59,51,42,94,64,24,30.23,30.15,4,0,8,0.00
2013-8-17,86,67,51,59,54,48,93,67,29,30.31,30.23,5,0,9,0.00
2013-8-18,73,66,63,63,60,58,93,82,61,30.30,30.22,3,0,7,0.13
2013-8-19,84,70,61,67,63,58,97,81,53,30.22,30.08,4,0,7,0.00
2013-8-20,92,75,64,71,65,59,99,75,34,30.22,30.14,4,0,6,0.00
2013-8-21,95,76,65,71,67,63,97,77,35,30.25,30.10,4,0,10,0.09
2013-8-22,92,78,67,70,64,58,96,68,34,30.14,29.99,4,1,10,0.02
2013-8-23,79,69,60,69,64,58,96,84,57,30.18,29.99,3,0,7,1.07
2013-8-24,88,69,58,66,57,46,99,72,25,30.38,30.18,4,0,6,0.00
2013-8-25,89,69,54,63,57,50,96,69,29,30.45,30.29,4,0,8,0.00
2013-8-26,93,75,61,62,58,51,87,61,26,30.32,30.06,4,1,8,0.00
2013-8-27,90,78,67,69,64,61,81,65,43,30.06,29.94,7,1,14,0.00
2013-8-28,78,75,72,73,71,66,97,88,79,29.98,29.84,3,0,5,0.19
2013-8-29,92,77,68,73,69,62,99,78,38,30.06,29.88,4,0,7,0.00
2013-8-30,95,77,64,73,66,61,99,74,34,30.07,29.91,4,0,9,0.00
2013-8-31,94,80,72,70,67,62,82,65,36,29.93,29.83,4,0,8,0.00
2013-9-1,95,76,66,70,66,61,95,75,32,29.90,29.80,3,0,6,0.04
2013-9-2,97,80,69,74,68,63,98,72,33,29.86,29.76,4,0,8,0.01
2013-9-3,89,76,62,70,57,42,88,56,21,30.03,29.79,5,1,12,0.00
2013-9-4,90,70,55,59,52,41,92,61,23,30.14,30.03,4,0,8,0.00
2013-9-5,88,70,57,61,54,46,95,63,26,30.18,30.06,6,1,13,0.00
2013-9-6,84,63,49,52,46,32,91,61,17,30.31,30.16,4,0,7,0.00
2013-9-7,90,66,49,59,51,40,92,64,19,30.19,29.97,4,0,8,0.00
2013-9-8,94,74,60,62,59,55,90,65,28,30.08,29.91,5,0,9,0.04
2013-9-9,83,71,62,63,56,46,83,60,37,30.24,30.08,4,1,12,0.00
2013-9-10,100,81,69,69,65,59,83,62,30,30.21,30.11,4,1,11,0.00
2013-9-11,99,82,70,72,68,63,96,68,33,30.19,30.04,5,0,9,0.00
2013-9-12,95,77,68,72,66,61,97,72,37,30.05,29.80,4,0,10,0.00
2013-9-13,81,69,56,62,51,35,88,57,21,30.01,29.77,7,1,17,0.01
2013-9-14,74,58,48,46,40,33,85,56,23,30.20,30.01,5,1,11,0.00
2013-9-15,83,62,43,55,48,40,92,65,29,30.26,30.10,4,1,9,0.00
2013-9-16,73,63,57,60,54,50,89,74,46,30.27,30.07,4,0,8,0.11
2013-9-17,77,59,44,54,40,19,90,59,13,30.47,30.27,5,1,9,0.00
2013-9-18,78,56,38,48,42,35,91,64,25,30.36,30.20,5,0,9,0.00
2013-9-19,81,63,48,57,51,44,91,69,36,30.22,30.10,4,0,8,0.00
2013-9-20,87,68,53,61,57,51,94,71,38,30.11,29.96,5,1,11,0.00
2013-9-21,72,66,60,64,61,58,96,85,70,29.97,29.72,6,1,15,0.47
2013-9-22,77,62,50,61,51,39,99,71,28,30.02,29.78,5,1,11,0.01
2013-9-23,72,57,46,47,41,35,86,58,27,30.14,30.01,7,1,11,0.00
2013-9-24,82,56,39,50,43,36,92,68,21,30.17,29.98,4,0,8,0.00
2013-9-25,82,58,44,53,45,33,93,68,18,30.04,29.91,4,0,7,0.00
2013-9-26,83,61,48,54,46,34,93,65,18,30.11,29.97,4,0,11,0.00
2013-9-27,80,58,44,55,48,42,93,73,30,30.26,30.11,4,0,6,0.00
2013-9-28,70,58,47,58,50,45,94,77,45,30.35,30.25,3,0,4,0.00
2013-9-29,82,59,43,56,46,37,95,69,21,30.25,30.08,4,0,7,0.00
2013-9-30,85,61,44,54,46,40,93,66,21,30.14,30.00,4,0,7,0.00
2013-10-1,87,67,53,60,52,44,93,65,23,30.12,30.01,4,1,9,0.00
2013-10-2,90,69,55,58,53,45,91,63,22,30.14,30.04,6,1,9,0.00
2013-10-3,90,69,55,61,57,52,94,70,32,30.18,30.06,4,0,8,0.00
2013-10-4,94,72,58,65,59,53,96,70,26,30.15,30.05,5,0,11,0.00
2013-10-5,94,75,61,65,60,54,96,66,27,30.15,30.02,4,0,8,0.00
2013-10-6,92,75,61,66,60,54,95,63,28,30.05,29.92,8,1,18,0.00
2013-10-7,74,65,50,67,57,42,94,74,46,30.11,29.76,5,1,15,0.00
2013-10-8,75,56,43,52,42,34,93,66,24,30.33,30.11,5,0,10,0.00
2013-10-9,63,52,44,49,45,41,92,76,48,30.38,30.28,4,0,8,0.00
2013-10-10,54,53,51,53,50,-47,98,91,86,30.28,30.07,3,0,8,0.00
2013-10-11,59,57,53,59,56,53,99,98,96,30.07,30.02,4,0,8,0.45
2013-10-12,63,61,58,63,60,58,99,99,97,30.22,30.04,4,0,8,0.53
2013-10-13,60,58,57,60,58,57,99,99,98,30.36,30.21,3,0,7,0.34
2013-10-14,75,60,53,60,54,50,99,83,44,30.37,30.26,4,0,8,0.01
2013-10-15,77,59,50,59,51,47,98,80,36,30.28,30.11,3,0,5,0.00
2013-10-16,77,62,51,58,55,49,97,79,50,30.12,29.93,4,0,6,0.00
2013-10-17,79,65,58,66,58,48,93,79,47,29.94,29.74,5,0,10,0.12
2013-10-18,76,57,43,48,37,23,84,52,16,30.06,29.90,5,1,11,0.00
2013-10-19,66,52,41,51,44,38,92,78,52,30.03,29.78,6,0,11,0.02
2013-10-20,54,42,40,40,31,28,70,66,43,30.13,29.93,6,0,15,0.00
2013-10-21,71,46,40,38,32,27,70,60,20,30.17,29.96,5,0,11,0.00
2013-10-22,67,53,38,49,39,29,82,60,28,29.96,29.85,5,0,10,0.00
2013-10-23,56,44,36,38,32,22,86,65,27,29.96,29.72,5,1,11,0.00
2013-10-24,52,43,34,31,24,13,75,50,22,30.18,29.95,8,1,13,0.00
2013-10-25,56,40,28,30,23,18,82,56,24,30.35,30.17,7,1,13,0.00
2013-10-26,63,44,26,28,18,3,82,45,10,30.34,29.94,4,1,12,0.00
2013-10-27,66,50,36,35,26,11,76,45,13,30.16,29.99,7,1,14,0.00
2013-10-28,70,46,31,38,30,22,86,61,18,30.30,30.16,3,0,5,0.00
2013-10-29,70,48,32,45,34,28,88,63,22,30.42,30.30,3,0,6,0.00
2013-10-30,78,58,46,51,45,38,80,64,30,30.32,30.15,4,0,5,0.00
2013-10-31,70,62,53,56,52,47,86,72,55,30.18,29.74,8,1,12,0.00
2013-11-1,82,66,48,58,45,17,86,53,10,29.74,29.57,8,1,15,0.20
2013-11-2,67,52,41,49,38,27,89,62,27,29.94,29.70,7,1,14,0.00
2013-11-3,62,48,32,35,22,-1,69,40,10,30.47,29.93,8,2,16,0.00
2013-11-4,50,36,26,24,19,10,74,51,22,30.65,30.47,4,0,6,0.00
2013-11-5,55,44,31,38,27,17,76,54,24,30.64,30.45,4,0,8,0.00
2013-11-6,76,58,45,46,41,37,77,55,27,30.46,30.06,6,1,12,0.00
2013-11-7,60,54,43,51,38,14,83,56,30,30.12,29.90,10,2,20,0.06
2013-11-8,54,42,27,22,16,3,72,37,13,30.34,30.11,11,2,20,0.00
2013-11-9,63,42,25,29,18,4,80,46,10,30.35,30.05,5,1,11,0.00
2013-11-10,64,47,32,33,18,5,74,38,10,30.28,30.00,10,2,21,0.00
2013-11-11,68,48,31,27,17,4,69,34,10,30.32,30.01,3,1,8,0.00
2013-11-12,52,38,29,34,16,2,60,41,21,30.44,30.00,11,3,19,0.00
2013-11-13,46,34,23,14,9,-4,62,38,12,30.52,30.39,8,2,16,0.00
2013-11-14,66,38,20,18,9,-4,66,38,10,30.39,30.22,3,0,8,0.00
2013-11-15,72,44,24,33,15,-2,73,40,10,30.30,30.17,5,0,8,0.01
2013-11-16,66,51,43,47,42,33,85,72,42,30.32,30.21,4,1,11,0.02
2013-11-17,64,58,51,56,50,46,89,78,63,30.22,29.72,7,2,14,0.02
2013-11-18,69,58,48,56,26,4,81,38,10,29.99,29.70,11,3,21,0.14
2013-11-19,50,41,30,21,18,13,63,40,24,30.40,29.99,8,3,17,0.00
2013-11-20,53,34,24,29,16,-3,80,54,10,30.57,30.40,5,0,8,0.00
2013-11-21,51,40,30,34,28,22,78,64,44,30.58,30.36,3,0,5,0.00
2013-11-22,69,56,41,48,43,34,79,62,41,30.38,30.03,7,1,15,0.00
2013-11-23,53,44,28,40,18,2,61,39,14,30.26,30.07,11,4,21,0.00
2013-11-24,34,26,20,10,-5,-18,52,27,10,30.54,30.26,12,4,25,0.00
2013-11-25,43,28,6,8,-3,-15,63,31,10,30.56,30.32,7,1,13,0.00
2013-11-26,38,34,33,32,22,-3,90,65,19,30.32,29.68,4,0,7,1.04
2013-11-27,39,35,27,35,25,2,91,69,32,30.09,29.59,11,3,19,0.06
2013-11-28,43,31,25,15,8,0,53,38,18,30.46,30.09,9,2,18,0.00
2013-11-29,45,30,20,23,14,8,75,53,22,30.72,30.45,7,1,14,0.00
2013-11-30,38,28,16,23,14,10,78,59,35,30.72,30.36,5,0,11,0.00
2013-12-1,49,32,18,28,19,12,79,60,32,30.35,30.02,2,0,4,0.00
2013-12-2,48,39,35,29,26,24,71,60,42,30.02,29.88,3,0,6,0.00
2013-12-3,63,41,30,35,29,25,84,65,24,30.00,29.89,4,0,5,0.00
2013-12-4,61,45,30,46,35,26,86,70,40,30.08,29.99,5,0,10,0.00
2013-12-5,71,57,42,54,48,38,90,73,49,30.06,29.93,5,1,10,0.00
2013-12-6,61,46,37,56,43,34,92,88,77,30.20,29.89,6,1,12,1.23
2013-12-7,43,35,26,34,25,15,91,67,43,30.57,30.17,6,1,12,0.01
2013-12-8,29,26,24,25,19,15,87,77,62,30.59,30.32,4,0,7,0.00
2013-12-9,44,33,29,34,29,25,89,83,64,30.33,30.03,2,0,4,0.26
2013-12-10,50,33,24,38,23,7,92,70,35,30.23,30.00,9,1,20,0.27
2013-12-11,50,26,10,25,9,-5,80,56,10,30.40,30.22,3,0,6,0.09
2013-12-12,40,27,14,19,0,-18,80,36,10,30.43,30.25,7,2,14,0.01
2013-12-13,48,27,11,17,6,-8,68,46,10,30.31,30.21,3,0,8,0.00
2013-12-14,38,32,27,30,26,17,88,77,64,30.31,29.76,4,0,8,0.19
2013-12-15,49,36,31,38,24,15,92,65,32,29.96,29.66,8,1,15,0.01
2013-12-16,42,34,30,22,21,19,70,59,45,30.17,29.95,6,1,11,0.00
2013-12-17,48,36,29,27,25,21,79,65,40,30.12,29.93,7,1,12,0.00
2013-12-18,47,33,23,25,14,3,84,49,16,30.22,30.01,8,1,14,0.00
2013-12-19,69,42,23,29,16,4,74,43,10,30.19,30.06,4,0,7,0.00
2013-12-20,64,48,35,32,22,5,62,40,10,30.10,29.99,3,0,6,0.00
2013-12-21,77,59,43,52,40,31,68,51,23,30.01,29.88,6,1,11,0.00
2013-12-22,72,64,60,59,54,50,90,71,55,30.02,29.80,8,1,15,0.28
2013-12-23,60,51,35,58,43,20,96,74,50,30.27,29.92,8,2,14,0.37
2013-12-24,40,30,20,23,12,-3,71,48,26,30.51,30.23,12,2,25,0.00
2013-12-25,40,25,15,12,4,-6,65,42,14,30.58,30.33,5,1,10,0.00
2013-12-26,48,32,20,21,9,-4,64,42,13,30.37,30.22,9,1,17,0.00
2013-12-27,57,34,19,26,10,-5,76,46,10,30.42,30.31,6,0,11,0.00
2013-12-28,62,41,23,26,12,0,71,38,10,30.35,30.11,4,0,8,0.00
2013-12-29,49,42,36,44,34,16,90,75,30,30.12,29.59,7,1,15,1.15
2013-12-30,46,38,29,37,26,18,84,62,50,30.18,29.84,6,1,13,0.00
2013-12-31,45,32,22,26,14,2,76,51,20,30.33,30.11,12,2,26,0.00
2014-1-1,55,35,20,24,16,6,74,50,14,30.40,30.11,5,1,10,0.00
2014-1-2,33,30,25,26,22,18,85,74,56,30.11,29.66,3,0,6,0.00